Location: Nitra
(0.0000°N, 18.0833°E)
Time: 20:44:57
(UTC+02:00)

A-11 Canister half - Pass Details

Date: 05 April 2023
Orbit: 1526 x 1682 km, 47.3° (Epoch: 08 June)

Event Time Altitude Azimuth Distance (km) Brightness Sun altitude
Rises 10:18:21 0° 212° (SSW) 4,818 11.4 51.6°
Reaches altitude 10° 10:21:30 10° 208° (SSW) 3,851 11.0 52.3°
Maximum altitude 10:31:14 62° 129° (SE) 1,825 10.8 54.7°
Drops below altitude 10° 10:41:09 10° 51° (NE) 3,931 11.8 57.2°
Sets 10:44:23 0° 48° (NE) 4,922 12.0 58.0°
